Weather History for KSKX - November, 2013

Change the Weather History Date:

Sunday, November 17, 2013

  Actual Average Record
Temperature  
Mean Temperature 40 °F -  
Max Temperature 53 °F 47 °F 64 °F (1999)
Min Temperature 28 °F 18 °F 0 °F (2014)
Degree Days  
Heating Degree Days 24    
Moisture  
Dew Point 25 °F    
Average Humidity 56    
Maximum Humidity 80    
Minimum Humidity 35    
Precipitation  
Precipitation 0.00 in - - ()
Sea Level Pressure  
Sea Level Pressure 30.06 in    
Wind  
Wind Speed 12 mph (WSW)    
Max Wind Speed 18 mph    
Max Gust Speed 26 mph    
Visibility 10 miles    
Events      
Averages and records for this station are not official NWS values.
T = Trace of Precipitation, MM = Missing Value Source: NWS Daily Summary

Daily Weather History Graph

Daily Weather History Graph

Search for Another Location

Airport or City:

Trip Planner

Search our weather history database for the weather conditions in past years. The results will help you decide how hot, cold, wet, or windy it might be!

Date:

Astronomy

Nov. 17, 2013 Rise Set
Actual Time 6:42 AM MST 4:52 PM MST
Civil Twilight 6:14 AM MST 5:20 PM MST
Nautical Twilight 5:43 AM MST 5:51 PM MST
Astronomical Twilight 5:12 AM MST 6:22 PM MST
Moon 5:11 PM MST (11/17) 6:39 AM MST (11/17)
Length of Visible Light 11h 05m
Length of Day
10h 10m
Full, 100% of the Moon is Illuminated
Nov 17
Full
Nov 25
Last Quarter
Dec 2
New
Dec 9
First Quarter
Dec 17
Full

Hourly Weather History & Observations

Time (MST) Temp. Windchill Dew Point Humidity Pressure Visibility Wind Dir Wind Speed Gust Speed Precip Events Conditions
12:15 AM 39.2 °F 30.8 °F 28.4 °F 65% 29.81 in 10.0 mi WSW 15.0 mph 26.5 mph N/A   Overcast
12:35 AM 39.2 °F 29.8 °F 28.4 °F 65% 29.81 in 10.0 mi WSW 18.4 mph - N/A   Overcast
12:55 AM 39.2 °F 30.5 °F 28.4 °F 65% 29.82 in 10.0 mi WSW 16.1 mph 20.7 mph N/A   Overcast
1:15 AM 39.2 °F 31.2 °F 28.4 °F 65% 29.84 in 10.0 mi WSW 13.8 mph - N/A   Overcast
1:35 AM 39.2 °F 32.0 °F 28.4 °F 65% 29.84 in 10.0 mi WSW 11.5 mph - N/A   Overcast
1:55 AM 39.2 °F 30.8 °F 28.4 °F 65% 29.86 in 10.0 mi WSW 15.0 mph 23.0 mph N/A   Overcast
2:15 AM 39.2 °F 31.2 °F 26.6 °F 61% 29.87 in 10.0 mi WSW 13.8 mph 20.7 mph N/A   Overcast
2:35 AM 39.2 °F 31.2 °F 26.6 °F 61% 29.88 in 10.0 mi WSW 13.8 mph 25.3 mph N/A   Overcast
2:55 AM 37.4 °F 28.5 °F 26.6 °F 65% 29.89 in 10.0 mi WSW 15.0 mph 20.7 mph N/A   Overcast
3:15 AM 37.4 °F 28.2 °F 26.6 °F 65% 29.90 in 10.0 mi WSW 16.1 mph 20.7 mph N/A   Overcast
3:35 AM 37.4 °F 28.5 °F 26.6 °F 65% 29.90 in 10.0 mi WSW 15.0 mph - N/A   Overcast
3:55 AM 37.4 °F 28.9 °F 26.6 °F 65% 29.91 in 10.0 mi WSW 13.8 mph - N/A   Overcast
4:15 AM 37.4 °F 29.3 °F 26.6 °F 65% 29.92 in 10.0 mi SW 12.7 mph - N/A   Overcast
4:35 AM 37.4 °F 29.3 °F 26.6 °F 65% 29.93 in 10.0 mi SW 12.7 mph - N/A   Overcast
4:55 AM 37.4 °F 29.8 °F 26.6 °F 65% 29.94 in 10.0 mi SW 11.5 mph - N/A   Overcast
5:15 AM 37.4 °F 29.3 °F 26.6 °F 65% 29.96 in 10.0 mi SW 12.7 mph - N/A   Overcast
5:35 AM 37.4 °F 28.9 °F 26.6 °F 65% 29.96 in 10.0 mi WSW 13.8 mph - N/A   Overcast
5:55 AM 35.6 °F 27.1 °F 26.6 °F 70% 29.97 in 10.0 mi WSW 12.7 mph - N/A   Mostly Cloudy
6:15 AM 35.6 °F 29.9 °F 26.6 °F 70% 30.00 in 10.0 mi SW 6.9 mph - N/A   Mostly Cloudy
6:35 AM 35.6 °F 29.2 °F 26.6 °F 70% 30.01 in 10.0 mi SW 8.1 mph - N/A   Overcast
6:55 AM 35.6 °F 28.6 °F 26.6 °F 70% 30.02 in 10.0 mi WSW 9.2 mph - N/A   Mostly Cloudy
7:15 AM 35.6 °F 28.6 °F 26.6 °F 70% 30.03 in 10.0 mi WSW 9.2 mph - N/A   Partly Cloudy
7:35 AM 35.6 °F 30.7 °F 28.4 °F 75% 30.05 in 10.0 mi SW 5.8 mph - N/A   Scattered Clouds
7:55 AM 39.2 °F 31.2 °F 28.4 °F 65% 30.06 in 10.0 mi WSW 13.8 mph - N/A   Mostly Cloudy
8:15 AM 39.2 °F 31.6 °F 28.4 °F 65% 30.07 in 10.0 mi WSW 12.7 mph - N/A   Partly Cloudy
8:35 AM 41.0 °F 33.9 °F 28.4 °F 61% 30.07 in 10.0 mi West 12.7 mph - N/A   Partly Cloudy
8:55 AM 42.8 °F 36.6 °F 28.4 °F 57% 30.08 in 10.0 mi WSW 11.5 mph - N/A   Partly Cloudy
9:15 AM 42.8 °F 38.0 °F 28.4 °F 57% 30.09 in 10.0 mi West 8.1 mph - N/A   Clear
9:35 AM 42.8 °F 37.5 °F 28.4 °F 57% 30.10 in 10.0 mi WNW 9.2 mph - N/A   Clear
9:55 AM 44.6 °F 39.2 °F 28.4 °F 53% 30.08 in 10.0 mi NW 10.4 mph - N/A   Clear
10:15 AM 44.6 °F 40.7 °F 26.6 °F 49% 30.10 in 10.0 mi NNW 6.9 mph - N/A   Clear
10:35 AM 46.4 °F 44.3 °F 26.6 °F 46% 30.10 in 10.0 mi North 4.6 mph - N/A   Clear
10:55 AM 46.4 °F 41.9 °F 26.6 °F 46% 30.10 in 10.0 mi North 9.2 mph - N/A   Clear
11:15 AM 46.4 °F - 26.6 °F 46% 30.09 in 10.0 mi Calm Calm - N/A   Clear
11:35 AM 48.2 °F - 26.6 °F 43% 30.08 in 10.0 mi West 8.1 mph 17.3 mph N/A   Clear
11:55 AM 50.0 °F - 26.6 °F 40% 30.07 in 10.0 mi NNW 9.2 mph - N/A   Clear
12:15 PM 50.0 °F - 24.8 °F 37% 30.07 in 10.0 mi NNW 8.1 mph - N/A   Clear
12:35 PM 51.8 °F - 24.8 °F 35% 30.06 in 10.0 mi SW 12.7 mph 16.1 mph N/A   Clear
12:55 PM 51.8 °F - 26.6 °F 38% 30.06 in 10.0 mi SW 18.4 mph - N/A   Clear
1:15 PM 51.8 °F - 26.6 °F 38% 30.05 in 10.0 mi WSW 17.3 mph 24.2 mph N/A   Clear
1:35 PM 51.8 °F - 26.6 °F 38% 30.06 in 10.0 mi West 16.1 mph 19.6 mph N/A   Clear
1:55 PM 51.8 °F - 26.6 °F 38% 30.05 in 10.0 mi SW 18.4 mph 23.0 mph N/A   Clear
2:15 PM 53.6 °F - 26.6 °F 35% 30.06 in 10.0 mi West 16.1 mph - N/A   Partly Cloudy
2:35 PM 53.6 °F - 26.6 °F 35% 30.07 in 10.0 mi West 17.3 mph - N/A   Clear
2:55 PM 51.8 °F - 24.8 °F 35% 30.07 in 10.0 mi West 15.0 mph - N/A   Clear
3:15 PM 51.8 °F - 24.8 °F 35% 30.08 in 10.0 mi West 13.8 mph - N/A   Clear
3:35 PM 51.8 °F - 24.8 °F 35% 30.09 in 10.0 mi West 8.1 mph - N/A   Clear
3:55 PM 51.8 °F - 24.8 °F 35% 30.10 in 10.0 mi WSW 12.7 mph - N/A   Clear
4:15 PM 50.0 °F - 24.8 °F 37% 30.10 in 10.0 mi WSW 12.7 mph - N/A   Clear
4:35 PM 48.2 °F - 24.8 °F 40% 30.11 in 10.0 mi WSW 10.4 mph - N/A   Clear
4:55 PM 44.6 °F 39.7 °F 24.8 °F 46% 30.12 in 10.0 mi West 9.2 mph - N/A   Clear
5:15 PM 42.8 °F 38.6 °F 23.0 °F 46% 30.13 in 10.0 mi West 6.9 mph - N/A   Clear
5:35 PM 42.8 °F 38.6 °F 23.0 °F 46% 30.14 in 10.0 mi WSW 6.9 mph - N/A   Clear
5:55 PM 39.2 °F 32.5 °F 21.2 °F 49% 30.15 in 10.0 mi SW 10.4 mph - N/A   Clear
6:15 PM 39.2 °F 32.5 °F 21.2 °F 49% 30.16 in 10.0 mi SW 10.4 mph - N/A   Clear
6:35 PM 39.2 °F 32.5 °F 21.2 °F 49% 30.16 in 10.0 mi SW 10.4 mph - N/A   Clear
6:55 PM 37.4 °F 30.3 °F 21.2 °F 52% 30.17 in 10.0 mi WSW 10.4 mph - N/A   Clear
7:15 PM 37.4 °F 32.1 °F 21.2 °F 52% 30.17 in 10.0 mi SW 6.9 mph - N/A   Clear
7:35 PM 37.4 °F 33.8 °F 23.0 °F 56% 30.18 in 10.0 mi SSW 4.6 mph - N/A   Clear
7:55 PM 35.6 °F 32.8 °F 23.0 °F 60% 30.19 in 10.0 mi ENE 3.5 mph - N/A   Clear
8:15 PM 35.6 °F 31.7 °F 23.0 °F 60% 30.19 in 10.0 mi SSE 4.6 mph - N/A   Clear
8:35 PM 33.8 °F 29.6 °F 23.0 °F 65% 30.20 in 10.0 mi SSE 4.6 mph - N/A   Clear
8:55 PM 33.8 °F 29.6 °F 23.0 °F 65% 30.20 in 10.0 mi South 4.6 mph - N/A   Clear
9:15 PM 32.0 °F 26.4 °F 21.2 °F 64% 30.21 in 10.0 mi South 5.8 mph - N/A   Clear
9:35 PM 35.6 °F 30.7 °F 23.0 °F 60% 30.22 in 10.0 mi East 5.8 mph - N/A   Clear
9:55 PM 33.8 °F 29.6 °F 23.0 °F 65% 30.22 in 10.0 mi ESE 4.6 mph - N/A   Clear
10:15 PM 35.6 °F 30.7 °F 23.0 °F 60% 30.23 in 10.0 mi SE 5.8 mph - N/A   Clear
10:35 PM 30.2 °F 22.6 °F 21.2 °F 69% 30.23 in 10.0 mi ESE 8.1 mph - N/A   Clear
10:55 PM 28.4 °F 20.4 °F 21.2 °F 74% 30.24 in 10.0 mi East 8.1 mph - N/A   Clear
11:15 PM 28.4 °F 21.2 °F 21.2 °F 74% 30.24 in 10.0 mi ESE 6.9 mph - N/A   Clear
11:35 PM 28.4 °F 21.2 °F 21.2 °F 74% 30.24 in 10.0 mi ESE 6.9 mph - N/A   Clear
11:55 PM 28.4 °F 20.4 °F 23.0 °F 80% 30.24 in 10.0 mi East 8.1 mph - N/A   Clear